[[{"header":{"parameterUnit":"m.s-1","parameterCategory":1,"la1":30.2991,"la2":30.254,"lo1":-89.0895,"lo2":-89.0444,"dy":0.0017,"dx":0.0017,"nx":28,"ny":28,"refTime":"2025-06-21T21:00:00:Z","depth":0,"parameterNumber":2,"parameterNumberName":"U-component_of_WINDS"},"data":[0,0,0,0,0,0,0,0,0,0,0,0,0,0,0,0,0,0,0,0,0,0,0,0,0,0,0,0,0,0,0,0,0,0,0,0,0,0,0,0,0,0,0,0,0,0,0,0,0,0,0,0,0,0,0,0,0,0,0.2232,0.2234,0,0.2352,0.2354,0.2355,0.2406,0.2406,0.2406,0.2406,0.253,0.2533,0.2537,0,0,0,0,0,0,0,0,0,0,0,0,0,0.2046,0.2049,0.2232,0.2234,0.2235,0.2352,0.2354,0.2356,0.2406,0.2406,0.2406,0.2406,0.2529,0.2533,0.2537,0,0,0,0,0,0,0,0,0,0,0,0,0,0.2142,0.205,0.2232,0.2275,0.228,0.2352,0.2354,0.2356,0.2406,0.2406,0.2406,0.2406,0.2527,0.2532,0.2538,0.2577,0,0,0.2554,0.2556,0,0,0,0,0,0,0,0,0.2137,0.2149,0.2267,0.2272,0.2278,0.2364,0.2334,0.243,0.2407,0.2358,0.2406,0.2405,0.2475,0.2485,0.2508,0.2582,0.2588,0.2554,0.2557,0.256,0.2561,0,0,0,0,0,0,0,0.213,0.2144,0.228,0.2269,0.2275,0.2287,0.2301,0.2352,0.2417,0.2363,0.2367,0.238,0.2478,0.2503,0.2511,0.259,0.2554,0.2559,0.2562,0.2564,0.27,0.27,0,0,0,0,0,0,0.2116,0.2138,0.2276,0.2283,0.2205,0.2291,0.2306,0.2337,0.2417,0.2429,0.238,0.2382,0.2494,0.2505,0.2516,0.2565,0.256,0.2565,0.2568,0.2699,0.27,0.27,0,0,0,0,0,0,0.2112,0.2128,0.2271,0.2212,0.2231,0.2295,0.2329,0.2339,0.2364,0.243,0.2442,0.2394,0.2494,0.2508,0.256,0.2571,0.2567,0.2572,0.2699,0.2699,0.27,0.2666,0,0,0,0,0,0,0.2106,0.2126,0.2142,0.2212,0.2234,0.2314,0.2329,0.2342,0.2373,0.2376,0.2446,0.2457,0.2495,0.2552,0.2566,0.2578,0.2576,0.2698,0.2699,0.27,0.2666,0.2665,0.2664,0,0,0,0,0,0.21,0.2129,0.2143,0.2159,0.2255,0.2315,0.2327,0.237,0.2374,0.239,0.2431,0.2455,0.2567,0.2557,0.2573,0.2586,0.2698,0.2699,0.27,0.2667,0.2665,0.2664,0,0,0,0,0,0,0.206,0.2139,0.2155,0.2208,0.2254,0.2323,0.2345,0.2368,0.2415,0.2416,0.2467,0.2482,0.253,0.2563,0.2551,0.2627,0.2634,0.2638,0.2604,0.2603,0.2602,0.2593,0.258,0,0,0,0,0,0.2056,0.2098,0.2165,0.2205,0.2227,0.2282,0.2309,0.2338,0.2388,0.2408,0.2454,0.2502,0.2548,0.2577,0.2623,0.2671,0.2686,0.2687,0.2686,0.2685,0.2688,0.2714,0.2715,0.2703,0.2703,0.2703,0,0,0.2051,0.21,0.2123,0.2198,0.2237,0.2279,0.2298,0.2342,0.2373,0.2415,0.2467,0.2501,0.2558,0.2608,0.2632,0.2637,0.2695,0.2686,0.2685,0.2689,0.2715,0.2716,0.2717,0.2704,0.2704,0.2704,0,0,0.2063,0.2104,0.2141,0.2179,0.2238,0.2274,0.2282,0.2347,0.2372,0.2424,0.2456,0.2493,0.2572,0.261,0.264,0.2662,0.2685,0.2676,0.2671,0.2695,0.2696,0.2697,0.2704,0.2707,0.2679,0.2678,0.2678,0,0.205,0.2114,0.2157,0.2198,0.223,0.2268,0.2305,0.234,0.2411,0.2431,0.2436,0.2533,0.2574,0.2632,0.2637,0.266,0.2671,0.2669,0.2692,0.2694,0.2696,0.2703,0.2706,0.2677,0.2677,0.2677,0.2677,0,0.2093,0.2137,0.2159,0.2225,0.2259,0.2298,0.2347,0.2375,0.24,0.2435,0.2486,0.2536,0.2592,0.2607,0.2633,0.2668,0.267,0.2683,0.2691,0.2695,0.2702,0.2706,0.2675,0.2675,0.2676,0.2676,0,0,0.2086,0.2173,0.2181,0.221,0.2276,0.231,0.235,0.2404,0.2427,0.2473,0.2507,0.2571,0.2582,0.2616,0.2645,0.2667,0.2679,0.2677,0.2679,0.2675,0.272,0.271,0.2713,0.2694,0.2695,0.2695,0.2715,0,0.2106,0.2179,0.2218,0.2274,0.2314,0.2349,0.2384,0.2427,0.246,0.2498,0.2534,0.2578,0.2591,0.2611,0.2633,0.2673,0.2689,0.2672,0.2726,0.2727,0.2711,0.2718,0.2708,0.2725,0.2719,0.2719,0.272,0,0.2141,0.2186,0.2245,0.2304,0.2323,0.2353,0.2404,0.244,0.2489,0.2511,0.2547,0.2575,0.2617,0.2621,0.2679,0.2666,0.269,0.2712,0.2714,0.2721,0.2724,0.2725,0.2731,0.2733,0.2725,0.2725,0.2724,0,0.2128,0.2204,0.2249,0.2273,0.2343,0.2363,0.2393,0.2442,0.2471,0.2515,0.2534,0.2583,0.2609,0.2646,0.2686,0.2685,0.2739,0.2747,0.2759,0.2757,0.277,0.2768,0.278,0.2784,0.2784,0.2784,0.2784,0,0.2148,0.2183,0.2244,0.2272,0.2311,0.2354,0.2392,0.2425,0.2468,0.2502,0.2535,0.2566,0.2617,0.2654,0.2686,0.2728,0.274,0.2759,0.2767,0.2756,0.2753,0.2773,0.2773,0.2785,0.2785,0.2784,0.2784,0,0.2142,0.2184,0.2235,0.2296,0.2312,0.2339,0.2391,0.2419,0.2452,0.2494,0.2507,0.2559,0.2604,0.2647,0.2708,0.2729,0.2771,0.2781,0.2754,0.2759,0.2768,0.2766,0.2793,0.2798,0.2798,0.2798,0.2798,0,0.2152,0.2179,0.2243,0.2267,0.2296,0.2336,0.2365,0.2408,0.2437,0.2493,0.2514,0.2561,0.2601,0.2671,0.2714,0.276,0.2772,0.2778,0.2779,0.2767,0.2772,0.277,0.2772,0.2777,0.2777,0.2777,0.2777,0,0.2164,0.2183,0.2224,0.2271,0.2304,0.2344,0.2384,0.2402,0.2452,0.2483,0.2529,0.256,0.262,0.2666,0.2716,0.2747,0.277,0.2775,0.2781,0.277,0.2753,0.2762,0.2751,0.2775,0.2775,0.2775,0.2776,0.2776,0.2167,0.2192,0.224,0.2283,0.2318,0.2354,0.2382,0.2418,0.2457,0.2509,0.2532,0.2578,0.2624,0.2694,0.2723,0.2759,0.2765,0.2772,0.2774,0.2776,0.2773,0.2746,0.2769,0.2769,0.2769,0.2769,0.2769,0,0.2181,0.2212,0.2252,0.2306,0.234,0.2357,0.2402,0.2429,0.2469,0.251,0.2548,0.2599,0.2643,0.2689,0.2735,0.2755,0.2766,0.2766,0.2765,0.2771,0.2766,0.2757,0.2755,0.2755,0.2755,0.2755,0.2755,0.2755,0.2192,0.2235,0.2259,0.2319,0.2351,0.2396,0.242,0.2453,0.2485,0.2541,0.2577,0.2606,0.2648,0.2697,0.2738,0.275,0.2766,0.2762,0.2777,0.2771,0.2772,0.2773,0.2764,0.2765,0.2765,0.2779,0.2779,0.2779]},{"header":{"parameterUnit":"m.s-1","parameterCategory":1,"la1":30.2991,"la2":30.254,"lo1":-89.0895,"lo2":-89.0444,"dy":0.0017,"dx":0.0017,"nx":28,"ny":28,"refTime":"2025-06-21T21:00:00:Z","depth":0,"parameterNumber":3,"parameterNumberName":"V-component_of_WINDS"},"data":[0,0,0,0,0,0,0,0,0,0,0,0,0,0,0,0,0,0,0,0,0,0,0,0,0,0,0,0,0,0,0,0,0,0,0,0,0,0,0,0,0,0,0,0,0,0,0,0,0,0,0,0,0,0,0,0,0,0,3.3261,3.3261,0,3.3219,3.3218,3.3218,3.3251,3.3252,3.3254,3.3255,3.3205,3.3203,3.32,0,0,0,0,0,0,0,0,0,0,0,0,0,3.3364,3.3362,3.3261,3.3261,3.326,3.3219,3.3218,3.3218,3.3251,3.3253,3.3254,3.3256,3.3206,3.3203,3.32,0,0,0,0,0,0,0,0,0,0,0,0,0,3.332,3.3361,3.3261,3.3272,3.3272,3.3219,3.3218,3.3217,3.325,3.3253,3.3255,3.3257,3.3207,3.3203,3.3199,3.3131,0,0,3.3187,3.3185,0,0,0,0,0,0,0,0,3.3323,3.3316,3.3271,3.3271,3.3271,3.3243,3.3236,3.3188,3.325,3.3258,3.3255,3.3258,3.3216,3.3211,3.3198,3.3129,3.3127,3.3187,3.3184,3.3183,3.3182,0,0,0,0,0,0,0,3.3326,3.3318,3.3244,3.327,3.327,3.3276,3.3273,3.3227,3.3225,3.3258,3.326,3.3255,3.3216,3.3202,3.3197,3.3126,3.3187,3.3183,3.3181,3.3179,3.2998,3.2995,0,0,0,0,0,0,3.3329,3.3321,3.3245,3.3243,3.3303,3.3273,3.3269,3.3249,3.3226,3.3224,3.3253,3.3257,3.3208,3.3202,3.3196,3.3113,3.3183,3.3179,3.3177,3.3,3.2997,3.2995,0,0,0,0,0,0,3.3331,3.3322,3.3247,3.3282,3.3273,3.3269,3.3247,3.3247,3.3233,3.3222,3.3222,3.324,3.3209,3.3201,3.3147,3.3112,3.3177,3.3173,3.3003,3.2999,3.2996,3.2949,0,0,0,0,0,0,3.3333,3.3322,3.3298,3.3282,3.3271,3.3201,3.3245,3.3245,3.3227,3.3231,3.3209,3.3208,3.321,3.3153,3.3143,3.3108,3.317,3.3006,3.3001,3.2997,3.2953,3.2944,3.2936,0,0,0,0,0,3.3337,3.3285,3.3296,3.3287,3.3241,3.3199,3.3193,3.3199,3.3224,3.3198,3.3191,3.3208,3.3118,3.3147,3.3136,3.3099,3.3008,3.3003,3.2997,3.2957,3.2946,3.2936,0,0,0,0,0,0,3.3294,3.3283,3.3295,3.3237,3.3219,3.3205,3.3173,3.3187,3.316,3.3164,3.3171,3.3166,3.3109,3.3099,3.3132,3.3031,3.3067,3.3059,3.304,3.3029,3.302,3.3023,3.3167,0,0,0,0,0,3.3279,3.3248,3.3239,3.3188,3.3178,3.3177,3.3159,3.3165,3.3146,3.3138,3.3127,3.3106,3.3073,3.305,3.3019,3.2953,3.2947,3.2921,3.2913,3.2906,3.2898,3.286,3.2848,3.2977,3.2977,3.2977,0,0,3.3245,3.3235,3.3214,3.3179,3.3166,3.3131,3.317,3.3133,3.3106,3.3132,3.308,3.3071,3.3048,3.2987,3.296,3.2977,3.2862,3.2899,3.2893,3.2889,3.2854,3.2841,3.2831,3.2973,3.2974,3.2974,0,0,3.3165,3.3156,3.3112,3.3098,3.3079,3.3078,3.3068,3.3052,3.3047,3.2997,3.3015,3.2983,3.2926,3.2908,3.2892,3.2806,3.282,3.2796,3.2749,3.2712,3.2702,3.2693,3.2661,3.265,3.2789,3.2788,3.2788,0,3.3125,3.3076,3.3087,3.3048,3.3031,3.3055,3.3009,3.2995,3.2965,3.2951,3.2972,3.2901,3.2887,3.2822,3.2801,3.2787,3.2774,3.2797,3.2703,3.2694,3.2686,3.2655,3.2643,3.2786,3.2786,3.2786,3.2786,0,3.3027,3.2992,3.2959,3.2932,3.2911,3.2869,3.2871,3.2849,3.2857,3.2854,3.2801,3.2785,3.2751,3.2736,3.2743,3.2671,3.2682,3.2703,3.2738,3.2671,3.2642,3.263,3.2781,3.2782,3.2783,3.2784,0,0,3.2917,3.2898,3.2885,3.2873,3.2854,3.2826,3.2784,3.2753,3.2733,3.2712,3.2675,3.2627,3.2646,3.2627,3.2632,3.26,3.2531,3.2624,3.2624,3.2606,3.2449,3.2433,3.2419,3.2541,3.2539,3.2537,3.2451,0,3.2836,3.2766,3.2774,3.2705,3.2673,3.2695,3.2659,3.2641,3.2637,3.2607,3.2602,3.2567,3.2596,3.2584,3.2554,3.2546,3.2499,3.2553,3.2505,3.2503,3.2508,3.2404,3.2387,3.2306,3.244,3.2438,3.2436,0,3.2731,3.2708,3.2637,3.2623,3.2609,3.2576,3.2548,3.252,3.25,3.2499,3.2479,3.249,3.2445,3.2483,3.2421,3.2457,3.2438,3.2431,3.2428,3.2422,3.2464,3.2394,3.228,3.2267,3.2419,3.242,3.2422,0,3.2657,3.2608,3.2559,3.2548,3.253,3.2506,3.2497,3.248,3.2461,3.2435,3.2422,3.2391,3.2373,3.2348,3.2349,3.2377,3.2286,3.2324,3.2282,3.2281,3.226,3.2261,3.2139,3.225,3.2251,3.2251,3.2251,0,3.2564,3.2519,3.2526,3.2495,3.2445,3.2454,3.2404,3.2397,3.2382,3.2349,3.2366,3.2334,3.2339,3.2306,3.2307,3.2254,3.2247,3.2243,3.2243,3.224,3.2241,3.2227,3.2231,3.2248,3.2248,3.2249,3.2249,0,3.2471,3.2474,3.2422,3.241,3.2406,3.2369,3.2358,3.2328,3.2326,3.2284,3.2275,3.227,3.2233,3.2233,3.2189,3.219,3.2125,3.2132,3.2132,3.2133,3.209,3.2093,3.1954,3.1935,3.206,3.2059,3.2058,0,3.2411,3.2377,3.2362,3.2342,3.2332,3.23,3.2281,3.2289,3.2267,3.2243,3.2215,3.218,3.2152,3.2091,3.2083,3.205,3.2055,3.2009,3.205,3.2048,3.2052,3.2054,3.205,3.2,3.1999,3.1997,3.1997,0,3.2302,3.2306,3.2279,3.2251,3.2229,3.2207,3.2187,3.217,3.2175,3.215,3.2113,3.2092,3.2049,3.2013,3.1981,3.1969,3.1982,3.1984,3.1972,3.1968,3.1968,3.1966,3.2108,3.1987,3.1988,3.1988,3.1989,3.1989,3.2222,3.2193,3.2178,3.2147,3.2134,3.2115,3.2086,3.2082,3.2052,3.2019,3.2025,3.1983,3.1963,3.1922,3.1908,3.1874,3.189,3.1873,3.1868,3.1864,3.1858,3.1976,3.1868,3.1869,3.1869,3.1869,3.1869,0,3.2113,3.2106,3.2077,3.205,3.2025,3.2043,3.2022,3.1999,3.1963,3.1945,3.1918,3.1875,3.184,3.183,3.1796,3.1771,3.1776,3.1761,3.1762,3.1759,3.1847,3.186,3.1757,3.1757,3.1758,3.1758,3.1758,3.1758,3.2054,3.2005,3.2007,3.1951,3.1943,3.1904,3.189,3.1872,3.1858,3.181,3.1782,3.1777,3.1761,3.1726,3.1694,3.1692,3.1677,3.166,3.166,3.1742,3.1753,3.1763,3.1776,3.1657,3.1657,3.1574,3.1573,3.1573]}]]